Location: ??????????
(41.2581°N, 22.8006°E)
Time: 03:23:36
(UTC+00:00)

USA 59 Rocket - Pass Details

Date: 13 December 2025
Orbit: 369 x 1675 km, 63.3° (Epoch: 12 January)

Event Time Altitude Azimuth Distance (km) Brightness Sun altitude
Rises 16:55:30 0° 183° (S) 2,986 3.8 -20.9°
Reaches altitude 10° 16:58:32 10° 167° (SSE) 1,858 2.5 -21.5°
Enters shadow 16:59:20 13° 159° (SSE) 1,604 2.1 -21.6°
